Location: Knobs
(40.8333°S, 175.2333°E)
Time: 02:23:38
(UTC+00:00)

Cosmos 1624 Rocket - Pass Details

Date: 12 June 2024
Orbit: 754 x 782 km, 74.0° (Epoch: 22 July)

Event Time Altitude Azimuth Distance (km) Brightness Sun altitude
Exits shadow 17:37:46 52° 277° (W) 965 4.1 -22.5°
Maximum altitude 17:37:55 52° 284° (WNW) 963 4.1 -22.5°
Drops below altitude 10° 17:43:00 10° 359° (N) 2,307 6.6 -21.5°
Sets 17:45:24 0° 4° (N) 3,220 7.4 -21.1°
